Flag for Germany Weather past 2 weeks in Wegberg, North Rhine-Westphalia, Germany

Now
48 °F

Passing clouds.


Feels Like: 42 °F
Forecast: 34 / 53 °F
Wind: 16 mph from Northwest

Location: Monchengladbach Airport

Current Time: Mar 27, 2015 at 1:45:33 PM

Latest Report: Mar 27, 2015 at 1:20 PM


Visibility: N/A

Pressure: 30.07 "Hg

Humidity: 58%

Dew point: 34 °F

Location of WegbergLocation

Historic Weather in Wegberg — Graph

°F

Wegberg temperature yesterday

Maximum temperature yesterday: 48 °F (at 12:20 PM)
Minimum temperature yesterday: 41 °F (at 7:50 AM)
Average temperature yesterday: 44 °F

Past Weeks' High & Low Weather Summary

 TemperatureHumidityPressure
High64 °F (Mar 17, 3:20 PM)100% (Mar 13, 7:50 AM)30.45 "Hg (Mar 13, 7:50 AM)
Low32 °F (Mar 13, 7:50 AM)34% (Mar 17, 3:20 PM)29.68 "Hg (Mar 25, 7:50 AM)
Average46 °F76%30.13 "Hg
* Reported Mar 12 12:20 PM — Mar 27 12:50 PM, Wegberg, Weather by CustomWeather, © 2015

Note: Actual official high and low records may vary slightly from our data, if they occured in-between our weather recording intervals... More about our weather records

Advertising

Wegberg weather history for previous 24 hours

 ConditionsComfort  
Time TempWeatherWind HumidityBarometerVisibility
12:50 PM
Fri, Mar 27
48 °FPassing clouds.16 mph58%30.07 "HgN/A
12:20 PM48 °FPassing clouds.15 mph66%30.04 "HgN/A
11:50 AM46 °FPassing clouds.12 mph71%30.04 "HgN/A
11:20 AM45 °FPassing clouds.13 mph76%30.04 "HgN/A
10:50 AM45 °FPassing clouds.9 mph76%30.04 "HgN/A
10:20 AM45 °FPassing clouds.10 mph76%30.01 "HgN/A
9:50 AM45 °FPartly sunny.12 mph76%30.01 "HgN/A
9:20 AM45 °FScattered clouds.12 mph81%29.98 "HgN/A
8:50 AM43 °FPartly sunny.16 mph87%29.98 "HgN/A
8:20 AM43 °FPartly sunny.12 mph81%29.98 "HgN/A
7:50 AM43 °FPartly sunny.9 mph87%29.95 "HgN/A
7:50 PM
Thu, Mar 26
43 °FRain. Passing clouds.7 mph93%29.74 "Hg4 mi
7:20 PM41 °FRain. Passing clouds.6 mph100%29.74 "Hg4 mi
6:50 PM41 °FLight rain. Passing clouds.8 mph100%29.71 "Hg5 mi
6:20 PM41 °FPassing clouds.8 mph93%29.71 "HgN/A
5:50 PM41 °FPassing clouds.8 mph93%29.71 "HgN/A
5:20 PM41 °FLight rain. Passing clouds.9 mph93%29.74 "Hg4 mi
4:50 PM43 °FPassing clouds.12 mph76%29.74 "HgN/A
4:20 PM45 °FPassing clouds.15 mph71%29.74 "HgN/A
3:50 PM43 °FPassing clouds.13 mph71%29.74 "HgN/A
3:20 PM45 °FLight rain. Passing clouds.16 mph66%29.71 "HgN/A
2:50 PM46 °FPassing clouds.12 mph57%29.74 "HgN/A
2:20 PM48 °FPassing clouds.9 mph54%29.74 "HgN/A
1:50 PM48 °FPassing clouds.10 mph54%29.74 "HgN/A
1:20 PM46 °FPassing clouds.12 mph62%29.74 "HgN/A
Weather by CustomWeather, © 2015

See weather overviewHow to use our weather pages